Regional Weather Roundup
Issued by NWS

Home | Current Version | Previous Version | Graphics & Text | Print | Product List | Glossary On
Versions: 1 2 3 4 5 6 7 8 9 10 11 12 13 14 15 16 17 18 19 20 21 22 23 24 25 26 27 28 29 30 31 32 33 34 35 36 37 38 39 40 41 42 43 44 45 46 47 48 49 50
311
ASUS45 KPSR 210910
RWRAZ

ARIZONA HOURLY REGIONAL WEATHER ROUNDUP
NATIONAL WEATHER SERVICE PHOENIX AZ
200 AM MST THU SEP 21 2017

NOTE: FAIR INDICATES FEW OR NO CLOUDS BELOW 12,000 FEET WITH NO
SIGNIFICANT WEATHER AND/OR OBSTRUCTIONS TO VISIBILITY.

AZZ001>003-036-211000-
NORTHWEST ARIZONA

CITY           SKY/WX    TMP DP  RH WIND       PRES   REMARKS
BULLHEAD CITY  CLEAR     79  37  22 SW5       29.66S
KINGMAN        CLEAR     72  37  28 S16       29.82F
$$

AZZ004>008-015-016-018-211000-
NORTH CENTRAL ARIZONA

CITY           SKY/WX    TMP DP  RH WIND       PRES   REMARKS
GRAND CANYON   CLEAR     56  41  57 S13       30.00F
WILLIAMS       CLEAR     57  43  58 S13G20    30.04F
PRESCOTT       CLEAR     58  45  62 S6        29.98S
FLAGSTAFF      CLEAR     54  36  50 SW10      30.06F
PAYSON           N/A     63  25  23 VRB3      30.02F
PAGE           CLEAR     69  38  32 VRB5      29.82S
$$

AZZ009>014-017-211000-
NORTHEAST ARIZONA

CITY           SKY/WX    TMP DP  RH WIND       PRES   REMARKS
WINSLOW        CLEAR     61  29  29 S8        29.96F
SAINT JOHNS    CLEAR     64  30  27 W9        30.04S
WINDOW ROCK    CLEAR     49  29  46 CALM      30.09S
SHOW LOW       CLEAR     57  27  30 S14       30.10F
$$

AZZ540-542>544-546-548-211000-
GREATER PHOENIX AREA

CITY           SKY/WX    TMP DP  RH WIND       PRES   REMARKS
PHOENIX        CLEAR     80  35  19 CALM      29.77R
BUCKEYE        CLEAR     72  37  28 NE7       29.77S
LUKE AFB       CLEAR     78  41  26 SW5       29.77S
DEER VALLEY    CLEAR     73  37  27 NE6       29.79
SCOTTSDALE     CLEAR     76  34  21 SE3       29.81S
MESA-GATEWAY   CLEAR     72  36  26 SE6       29.82S
$$

AZZ539-553-211000-
SOUTHWEST MARICOPA COUNTY AND PINAL COUNTY

CITY           SKY/WX    TMP DP  RH WIND       PRES   REMARKS
CASA GRANDE    NOT AVBL
GILA BEND      FAIR      78  30  17 SE12      29.73S
$$

AZZ503-504-507>509-211000-
SOUTHEAST ARIZONA

CITY           SKY/WX    TMP DP  RH WIND       PRES   REMARKS
TUCSON         CLEAR     76  43  30 E3        29.92S
DAVIS-MONTHAN  CLEAR     73  45  37 E7        29.90S
NOGALES        CLEAR     67  55  65 CALM      30.00F
SIERRA VISTA   CLEAR     67  55  66 SW6       30.05S
DOUGLAS        CLEAR     69  59  70 S6        30.02S
SAFFORD        CLEAR     68  31  25 CALM      29.90F
$$

AZZ532-211000-
SOUTHWEST ARIZONA

CITY           SKY/WX    TMP DP  RH WIND       PRES   REMARKS
YUMA           CLEAR     78  60  53 NW6       29.71R
$$

CAZ041-043-047-048-061-525>527-560>570-211000-
SOUTHERN CALIFORNIA

CITY           SKY/WX    TMP DP  RH WIND       PRES   REMARKS
DOWNTOWN L.A.  CLOUDY    69  62  78 CALM      29.84S
L.A. AIRPORT   CLOUDY    68  63  84 S7        29.85S
SAN DIEGO      CLOUDY    68  57  68 S8        29.88F
BURBANK        CLOUDY    66  58  75 S6        29.85S
ONTARIO        CLOUDY    65  59  81 W8        29.86F
RIVERSIDE      CLOUDY    65  60  84 W5        29.86F
PALM SPRINGS   CLEAR     73  56  54 S5        29.71R
EL CENTRO NAS  CLEAR     77  39  25 W10       29.71R
IMPERIAL       CLEAR     74  44  34 W8        29.69R
BLYTHE         CLEAR     75  51  43 S10       29.69R
NEEDLES        CLEAR     83  40  21 CALM      29.68R
$$

NVZ020-UTZ003-211000-
SOUTHERN NEVADA-UTAH

CITY           SKY/WX    TMP DP  RH WIND       PRES   REMARKS
LAS VEGAS      CLEAR     77  43  29 S22G30    29.63F
SALT LAKE CITY PTCLDY    54  44  69 NW12      29.72R
$$

NMZ009-TXZ055-211000-
NEW MEXICO-WEST TEXAS

CITY           SKY/WX    TMP DP  RH WIND       PRES   REMARKS
ALBUQUERQUE    CLEAR     65  32  29 E5        30.03F
EL PASO        PTCLDY    74  47  38 S8        29.96S
$$


........................KEY........................
SKY/WX - SKY CONDITION/WEATHER
TMP    - TEMPERATURE IN FAHRENHEIT
DP     - DEW POINT IN FAHRENHEIT
RH     - RELATIVE HUMIDITY IN PERCENT
WIND   - DIRECTION AND SPEED IN MILES PER HOUR (MPH)
VRB    - VARIABLE WIND DIRECTION
PRES   - MEAN SEA LEVEL PRESSURE IN INCHES OF MERCURY
         F - FALLING PRESSURE   R - RISING PRESSURE
         S - STEADY PRESSURE
VSB    - VISIBILITY IN MILES
HX     - HEAT INDEX IN FAHRENHEIT
WCI    - WIND CHILL INDEX IN FAHRENHEIT
TC     - TEMPERATURE IN CELSIUS WHICH IS ALSO KNOWN AS
         TEMPERATURE IN CENTIGRADE
AFB    - AIR FORCE BASE
         LUKE AFB IS LUKE AIR FORCE BASE
         DAVIS-MONTHAN IS DAVIS-MONTHAN AIR FORCE BASE
NAS    - NAVAL AIR STATION
         EL CENTRO NAS IS EL CENTRO NAVAL AIR STATION
N/A    - NOT AVAILABLE





USA.gov is the U.S. government's official web portal to all federal, state and local government web resources and services.